Regional Weather Roundup
Issued by NWS

Home | Current Version | Previous Version | Text Only | Print | Product List | Glossary Off
Versions: 1 2 3 4 5 6 7 8 9 10 11 12 13 14 15 16 17 18 19 20 21 22 23 24 25 26 27 28 29 30 31 32 33 34 35 36 37 38 39 40 41 42 43 44 45 46 47 48 49 50

000
ASUS42 KTBW 010216
RWRFL
FLORIDA REGIONAL WEATHER ROUNDUP
NATIONAL WEATHER SERVICE TAMPA BAY RUSKIN FL
1000 PM EDT SAT APR 30 2016

NOTE: "FAIR" INDICATES FEW OR NO CLOUDS BELOW 12,000 FEET WITH NO
SIGNIFICANT WEATHER AND/OR OBSTRUCTIONS TO VISIBILITY.

FLZ001>010-012>015-112-114-115-010300-
PANHANDLE FLORIDA

CITY           SKY/WX    TMP DP  RH WIND       PRES   REMARKS
PENSACOLA      CLOUDY    76  71  85 SE6       29.96R
CRESTVIEW      CLOUDY    75  69  81 CALM      29.98R
DUKE FIELD     FAIR      74  69  86 SE3       29.96R
VALPARAISO     CLOUDY    76  72  88 SE7       29.96R
MARY ESTHER    CLOUDY    75  71  88 SE3       29.95R
PANAMA CITY    FAIR      76  72  87 SE5       29.96R
TYNDALL AFB    MOCLDY    75  73  91 SE5       29.97R
APALACHICOLA   CLOUDY    76  74  93 S7        29.97R

STATION/POSITION SKY/WX   TEMP    WIND        PRES    WAVE   SWELL
                          AIR SEA DIR/SP/G            HT/PER HT/PER
                          (F)     (DEG/KT/KT) (MB)    (FT/S) (FT/S)
30.1N   87.6W              75 74   90/  6/  8 1013.4R   4/ 7   5/ 7
29.2N   88.2W              75 74  100/  6/  8 1013.1R
28.8N   86.0W              79 78  160/ 14/ 16 1014.3R   4/ 7   2/ 7
PANAMA CITY BEAC           77 78  130/  9/ 11 1014.5R
TOWER C                    74     160/  5/  6 1015.5R
28.5N   84.5W              76 75  170/  4/  6 1014.3R   4/ 7   3/ 7

$$
FLZ011-016>038-118-127-128-134-139-239-010300-
NORTH FLORIDA

CITY           SKY/WX    TMP DP  RH WIND       PRES   REMARKS
MARIANNA       PTCLDY    77  67  71 S3        29.97R
TALLAHASSEE    MOCLDY    76  70  82 W3        29.99R
PERRY          MOCLDY    73  71  92 CALM      29.99R
LIVE OAK       CLOUDY    77  73  88 CALM      30.02R
CROSS CITY       N/A     75  68  78 CALM      29.99R
LAKE CITY      CLOUDY    73  72  94 SE7       30.01R
GAINESVILLE    CLOUDY    77  68  73 E5        29.99R
WILLISTON      FAIR      79  72  78 CALM      30.00R
PALATKA        MOCLDY    75  75 100 SE8       30.02R
MAYPORT NAS    CLOUDY    73  71  93 SE8       30.02R
JACKSONVILLE   CLOUDY    75  70  84 SE9       30.00R
JAX NAS        MOCLDY    79  69  71 SE12      30.02R
JAX CECIL      PTCLDY    75  68  78 E3        30.01R
FERNANDINA BEA FAIR      77  72  83 SE7       30.01R
ST AUGUSTINE   CLOUDY    75  70  84 SE8       30.03R
PALM COAST     FAIR      74  71  92 SE3       30.02R FOG

STATION/POSITION SKY/WX   TEMP    WIND        PRES    WAVE   SWELL
                          AIR SEA DIR/SP/G            HT/PER HT/PER
                          (F)     (DEG/KT/KT) (MB)    (FT/S) (FT/S)
SHELL POINT                78     190/  5/  8 1013.4
KEATON BEACH               75      CALM  /  1 1015.1R
CEDAR KEY                  78     310/  2/  3 1015.8R
FERNANDINA                 76 78  130/  6/  8 1015.7R
30.7N   81.3W                 74                N/A     2/ 9
MAYPORT                    75 75  130/  7/ 11 1015.7R
ST AUGUSTINE               74 74  160/ 11/ 12 1017.3R

$$
FLZ040-043>046-052-053-057-058-063-144-010300-
INTERIOR CENTRAL FLORIDA

CITY           SKY/WX    TMP DP  RH WIND       PRES   REMARKS
OCALA          MOCLDY    81  64  57 SE3       30.00R
THE VILLAGES     N/A     79  68  69 E8        29.90R
LEESBURG       PTCLDY    78  66  66 SE12      30.01R
SANFORD        CLOUDY    74  68  81 SE8       30.01R
ORLANDO EXEC   CLEAR     77  67  71 SE12      30.01R
ORLANDO INTL   CLOUDY    75  66  73 SE9       30.01R
WINTER HAVEN   CLEAR     77  64  64 SE9       30.01R
LAKELAND       CLEAR     77  64  65 SE9       30.00R
BARTOW         FAIR      73  63  68 E6        30.01R
OKEECHOBEE     PTCLDY    70  64  83 CALM      30.01R

$$
FLZ041-047-054-059-064-141-147-010300-
EAST CENTRAL FLORIDA

CITY           SKY/WX    TMP DP  RH WIND       PRES   REMARKS
DAYTONA BEACH  CLOUDY    77  70  79 VRB5      30.02R
DELAND           N/A     73  68  83 CALM      30.03R
NEW SMYRNA BEA PTCLDY    75  70  83 SE14      30.02R
JFK SPACE CTR  CLEAR     74  68  82 SE5       30.01R
CAPE CANAVERAL CLEAR     74  69  83 SE7       30.01R
PATRICK AFB    CLEAR     76  69  78 SE10      30.01R
MELBOURNE      PTCLDY    77  67  71 E10       30.01R
VERO BEACH     CLOUDY    75  65  70 E12       30.00S
FT PIERCE      PTCLDY    74  67  78 E9        30.00R

STATION/POSITION SKY/WX   TEMP    WIND        PRES    WAVE   SWELL
                          AIR SEA DIR/SP/G            HT/PER HT/PER
                          (F)     (DEG/KT/KT) (MB)    (FT/S) (FT/S)
28.5N   80.2W              77 78  120/ 12/ 14 1016.3R
28.9N   78.5W              77 77  110/  6/  8 1017.3R
TRIDENT PIER               76 80  110/  5/  8 1015.6S
28.4N   80.5W                 78                N/A     2/ 3
27.5N   80.2W                 78                N/A     2/ 4

$$
FLZ050-056-061-142-242-148-248-149-249-151-251-155-255-
160-260-010300-
WEST CENTRAL FLORIDA

CITY           SKY/WX    TMP DP  RH WIND       PRES   REMARKS
CRYSTAL RIVER  MOCLDY   N/A N/A N/A CALM      29.99R
INVERNESS      FAIR      79  68  69 SE7       30.00R
BROOKSVILLE    CLOUDY    79  65  62 E7        29.99R
ZEPHYRHILLS    FAIR      76  63  63 E5        29.99R
CLEARWATER AIR FAIR      77  68  73 CALM      29.97R
ST PETE CLEARW MOCLDY    77  68  73 CALM      29.97R
TAMPA INTL     CLOUDY    82  65  56 SE9G16    29.97R
TAMPA EXEC     CLOUDY    81  64  57 SE6       29.98R
PLANT CITY     MOCLDY    79  66  65 SE5       30.01R
MACDILL AFB    MOCLDY    80  67  63 SE10      29.97R
PETER O KNIGHT MOCLDY    82  68  61 SE10      29.98R
ST PETERSBURG  PTCLDY    79  68  69 SW3       29.95R
SARASOTA       PTCLDY    76  68  76 SE6       29.95R
VENICE         NOT AVBL

STATION/POSITION SKY/WX   TEMP    WIND        PRES    WAVE   SWELL
                          AIR SEA DIR/SP/G            HT/PER HT/PER
                          (F)     (DEG/KT/KT) (MB)    (FT/S) (FT/S)
27.3N   84.2W                 80                N/A     3/ 6
CLEARWATER BEACH           79 81  200/  5/  7 1014.0R
MIDDLE TAMPA BAY NOT AVBL
VENICE                     78 81   90/  4/  6 1014.3R

$$
FLZ066-069-070-075>078-162-262-165-265-010300-
SOUTHWEST FLORIDA AND KEYS

CITY           SKY/WX    TMP DP  RH WIND       PRES   REMARKS
PUNTA GORDA    PTCLDY    73  64  73 E6        29.99R
FT MYERS       PTCLDY    76  62  62 E8        29.97R
SOUTHWEST INTL PTCLDY    75  63  66 E9        29.98R
NAPLES         PTCLDY    78  64  61 E8        29.96R
MARCO ISLAND   PTCLDY    75  63  64 E6        29.97R
MARATHON       MOCLDY    79  69  71 E7        29.96R
KEY WEST NAS   PTCLDY    78  65  63 E18       29.94R
KEY WEST INTL  PTCLDY    78  67  68 E20G26    29.95R

STATION/POSITION SKY/WX   TEMP    WIND        PRES    WAVE   SWELL
                          AIR SEA DIR/SP/G            HT/PER HT/PER
                          (F)     (DEG/KT/KT) (MB)    (FT/S) (FT/S)
NAPLES                        82              1013.9R
26.0N   85.6W              80 80  130/ 16/ 19 1013.2R   5/ 6
DRY TORTUGAS               78     100/ 18/ 19 1013.8R
SAND KEY                   78     120/ 23/ 27 1014.0R
LONG KEY                   79 81  100/ 14/ 16 1015.0R

$$
FLZ067-068-071>074-168-172>174-010300-
SOUTHEAST FLORIDA

CITY           SKY/WX    TMP DP  RH WIND       PRES   REMARKS
W PALM BEACH   CLOUDY    78  66  66 E14       30.00S
BOCA RATON     PTCLDY    77  68  73 SE9       29.99R
FT LAUDER-EXEC CLOUDY    77  67  71 E14       29.98F
FT LAUDERDALE  MOCLDY    78  68  71 E16       29.97F
POMPANO BEACH  CLOUDY    75  69  81 E12       29.99S
PEMBROKE PINES CLOUDY    77  68  73 E14       29.99F
OPA LOCKA      MOCLDY    78  68  71 E13       29.97F
MIAMI          CLOUDY    78  68  71 E17       29.97F
WEST KENDALL   PTCLDY    76  68  76 E13       29.97F
HOMESTEAD      CLOUDY    77  69  75 E14       29.97F

STATION/POSITION SKY/WX   TEMP    WIND        PRES    WAVE   SWELL
                          AIR SEA DIR/SP/G            HT/PER HT/PER
                          (F)     (DEG/KT/KT) (MB)    (FT/S) (FT/S)
PORT EVERGLADES            78      90/ 10/ 14 1015.2F
VIRGINIA KEY               78 82   70/ 10/ 14 1015.9R
LAKE WORTH                 77 80   80/  9/ 10 1015.7R
SETTLEMENT POINT           78     110/ 14/ 16 1016.9R

$$




USA.gov is the U.S. government's official web portal to all federal, state and local government web resources and services.